Regional Weather Roundup
Issued by NWS Newport/Morehead, NC

Current Version | Previous Version | Graphics & Text | Print | Product List | Glossary On
Versions: 1 2 3 4 5 6 7 8 9 10 11 12 13 14 15 16 17 18 19 20 21 22 23 24 25 26 27 28 29 30 31 32 33 34 35 36 37 38 39 40 41 42 43 44 45 46 47 48 49 50
000 ASUS42 KMHX 141525 RWRMHX WEATHER ROUNDUP FOR EASTERN NORTH CAROLINA NATIONAL WEATHER SERVICE NEWPORT/MOREHEAD CITY NC 1000 AM EST THU DEC 14 2017 NOTE: "FAIR" INDICATES FEW OR NO CLOUDS BELOW 12,000 FEET WITH NO SIGNIFICANT WEATHER AND/OR OBSTRUCTIONS TO VISIBILITY NCZ015>017-031-032-045>047-102-103-141600- NORTH COAST CITY SKY/WX TMP DP RH WIND PRES REMARKS EDENTON SUNNY 48 29 47 W10 29.83R ELIZABETH CITY SUNNY 47 29 49 W9 29.81R KITTY HAWK SUNNY 45 28 51 W6 29.81R MANTEO SUNNY 47 28 47 NW7 29.83R $$ NCZ045>047-081-094-103-104-141600- CENTRAL COAST CITY SKY/WX TMP DP RH WIND PRES REMARKS FRISCO SUNNY 50 34 54 W12G23 29.84R $$ NCZ095-097-098-100-101-141600- SOUTHERN COAST CITY SKY/WX TMP DP RH WIND PRES REMARKS BEAUFORT SUNNY 49 29 46 W12 29.86R CEDAR ISLAND NOT AVBL JACKSONVILLE SUNNY 49 28 44 W13G20 29.86R PINEY ISLAND NOT AVBL WILMINGTON SUNNY 50 28 42 W13 29.89R $$ NCZ011>013-027>030-043-044-078>080-089-090>093-098-141600- COASTAL PLAIN CITY SKY/WX TMP DP RH WIND PRES REMARKS AHOSKIE SUNNY 46 26 44 CALM 29.83R CLINTON SUNNY 47 28 48 W8 29.88R ELIZABETHTOWN NOT AVBL GOLDSBORO SUNNY 47 24 40 W13 29.84R GREENVILLE SUNNY 46 27 46 W8 29.88R HAVELOCK SUNNY 49 29 46 W14 29.86R KENANSVILLE SUNNY 46 25 42 W10 29.86R KINSTON SUNNY 46 25 42 SW8 29.86R NEW BERN SUNNY 47 27 45 W13 29.86R RICHLANDS SUNNY 49 28 44 W8G16 29.87R ROCKY MOUNT SUNNY 45 25 45 W7 29.85R WASHINGTON SUNNY 48 25 40 W9 29.85R WHITEVILLE SUNNY 48 28 46 W5 29.90R $$ AMZ130-135-150-152-154-156-158-170-250-252-270-ANZ085-086-088-633-658-670-141600- MARINE OBSERVATIONS STATION/POSITION TIME TEMP WIND PRES WAVE SWELL AIR SEA DIR/SP/G HT/PER HT/PER (UTC) (F) (DEG/KT/KT) (MB) (FT/S) (FT/S) CHESAPEAKE LIGHT NOT AVBL 64 E VA BEACH 1450 50 60 260/ 25/ 29 1007.4 7/ 6 DUCK 1500 44 52 260/ 14/ 18 1009.1 2 E DUCK 1500 55 N/A 2/ 7 OREGON INLET 1500 45 41 240/ 13/ 14 1009.6 13E OREGON INLT 1448 59 N/A 5/ 8 3/ 8 HATTERAS CG 1500 47 50 260/ 16/ 19 1010.1 DIAMOND BUOY 1510 56 73 270/ 17/ 23 1010.8 CAPE LOOKOUT 1500 260/ 17/ 19 1011.6 BEAUFORT LAB 1500 48 51 260/ 5/ 10 1011.2 30 SE NEW RVR IN 1508 53 64 250/ 16/ 21 1011.6 30 SE NEW RVR IN 1500 64 N/A 8/ 8 27 SE WRIGHTSVLE 1508 52 65 260/ 17/ 25 1012.3 5 SE WRIGHTSVLE 1508 49 56 270/ 14/ 19 1011.7 225 S CAPE HAT 1450 68 74 250/ 23/ 27 1013.6 10/ 8 41 SE CHARLESTON 1510 73 270/ 19/ 23 1014.3 $$

USA.gov is the U.S. government's official web portal to all federal, state and local government web resources and services.